CW8504 Weather Reports


Display with metric or nautical units.
time (UTC)temp
F
wind
direction
speed
MPH
gust
MPH
rain 1hr
in
rain 24hr
in
rain mn
in
humidity
%
barometer
mb
20260510204404 72 203 5.0 14.0 0.00 0.00 0.00 12 1021.5
20260510203404 72 213 7.0 13.0 0.00 0.00 0.00 12 1021.6
20260510202904 72 213 1.0 12.0 0.00 0.00 0.00 10 1021.6
20260510202404 72 207 5.0 12.0 0.00 0.00 0.00 11 1021.7
20260510201904 71 162 1.0 3.0 0.00 0.00 0.00 12 1021.6
20260510201404 71 165 2.0 12.0 0.00 0.00 0.00 10 1021.7
20260510200904 71 222 6.0 9.0 0.00 0.00 0.00 12 1021.9
20260510195904 71 223 5.0 10.0 0.00 0.00 0.00 9 1021.9
20260510195404 71 220 1.0 7.0 0.00 0.00 0.00 11 1021.9
20260510194404 71 216 2.0 6.0 0.00 0.00 0.00 9 1022.0
20260510193904 70 220 6.0 12.0 0.00 0.00 0.00 12 1022.1
20260510193404 70 203 5.0 12.0 0.00 0.00 0.00 9 1022.0
20260510192904 70 214 6.0 12.0 0.00 0.00 0.00 9 1022.0
20260510192404 70 142 2.0 12.0 0.00 0.00 0.00 9 1022.0
20260510191404 69 218 0.0 3.0 0.00 0.00 0.00 10 1022.1
20260510190903 70 217 4.0 9.0 0.00 0.00 0.00 10 1022.3
20260510185904 70 165 2.0 7.0 0.00 0.00 0.00 12 1022.2
20260510185404 70 111 3.0 9.0 0.00 0.00 0.00 10 1022.3
20260510184903 70 251 4.0 10.0 0.00 0.00 0.00 10 1022.4
20260510184404 70 153 0.0 1.0 0.00 0.00 0.00 12 1022.4
20260510183904 69 152 1.0 3.0 0.00 0.00 0.00 12 1022.4
20260510183403 69 178 3.0 9.0 0.00 0.00 0.00 11 1022.4
20260510182904 69 225 2.0 9.0 0.00 0.00 0.00 13 1022.5
20260510182404 68 49 0.0 5.0 0.00 0.00 0.00 14 1022.5
20260510181904 67 49 0.0 3.0 0.00 0.00 0.00 17 1022.6
20260510180904 66 53 1.0 6.0 0.00 0.00 0.00 16 1022.8
20260510180403 66 57 0.0 1.0 0.00 0.00 0.00 16 1022.8
20260510175404 65 44 0.0 3.0 0.00 0.00 0.00 20 1023.0
20260510174404 64 44 1.0 3.0 0.00 0.00 0.00 21 1023.1
20260510173903 64 43 0.0 6.0 0.00 0.00 0.00 21 1023.2
20260510173406 64 44 0.0 3.0 0.00 0.00 0.00 20 1023.2
20260510171904 63 38 0.0 2.0 0.00 0.00 0.00 23 1023.4
20260510171403 62 38 0.0 2.0 0.00 0.00 0.00 22 1023.4
20260510170904 61 38 1.0 7.0 0.00 0.00 0.00 25 1023.4
20260510170404 60 36 1.0 3.0 0.00 0.00 0.00 23 1023.5
20260510165904 60 36 3.0 10.0 0.00 0.00 0.00 22 1023.4
20260510164904 60 36 2.0 6.0 0.00 0.00 0.00 23 1023.5
20260510164403 60 34 2.0 8.0 0.00 0.00 0.00 23 1023.5
20260510163904 59 34 1.0 9.0 0.00 0.00 0.00 24 1023.5
20260510163404 59 31 1.0 12.0 0.00 0.00 0.00 25 1023.5
20260510162904 58 14 4.0 9.0 0.00 0.00 0.00 26 1023.4
20260510162404 58 37 1.0 10.0 0.00 0.00 0.00 25 1023.4
20260510161907 58 15 4.0 10.0 0.00 0.00 0.00 25 1023.5
20260510160404 56 29 2.0 9.0 0.00 0.00 0.00 28 1023.7
20260510155404 54 64 0.0 6.0 0.00 0.00 0.00 35 1023.9
20260510154904 53 57 1.0 7.0 0.00 0.00 0.00 35 1023.9
20260510154405 52 282 0.0 6.0 0.00 0.00 0.00 37 1024.1
20260510153904 51 240 1.0 8.0 0.00 0.00 0.00 38 1024.1
20260510153404 50 304 0.0 3.0 0.00 0.00 0.00 40 1024.1
20260510152905 49 303 0.0 5.0 0.00 0.00 0.00 41 1024.2
20260510152404 48 308 0.0 5.0 0.00 0.00 0.00 44 1024.2
20260510151904 47 311 0.0 1.0 0.00 0.00 0.00 45 1024.2
20260510150904 45 307 1.0 2.0 0.00 0.00 0.00 48 1024.3
20260510150404 45 307 0.0 0.0 0.00 0.00 0.00 51 1024.4
20260510145904 44 307 0.0 0.0 0.00 0.00 0.00 52 1024.4
20260510145404 43 307 0.0 0.0 0.00 0.00 0.00 54 1024.5
20260510143404 39 306 0.0 2.0 0.00 0.00 0.00 60 1024.6
20260510142404 37 306 0.0 3.0 0.00 0.00 0.00 62 1024.7
20260510141903 37 306 0.0 3.0 0.00 0.00 0.00 63 1024.7
20260510140904 36 306 0.0 0.0 0.00 0.00 0.00 64 1024.8
20260510140404 35 306 0.0 0.0 0.00 0.00 0.00 66 1024.8
20260510135903 34 306 0.0 0.0 0.00 0.00 0.00 67 1024.8
20260510135404 34 306 0.0 0.0 0.00 0.00 0.00 68 1024.8
20260510134904 33 306 0.0 0.0 0.00 0.00 0.00 69 1024.8
20260510134404 33 306 0.0 0.0 0.00 0.00 0.00 70 1024.8
20260510133404 32 306 0.0 0.0 0.00 0.00 0.00 72 1024.8
20260510132404 31 306 0.0 0.0 0.00 0.00 0.00 73 1024.9
20260510131419 29 306 0.0 0.0 0.00 0.00 0.00 73 1024.8
20260510130904 29 306 0.0 0.0 0.00 0.00 0.00 73 1024.8
20260510130404 29 306 0.0 0.0 0.00 0.00 0.00 72 1024.8
20260510125904 28 306 0.0 0.0 0.00 0.00 0.00 72 1024.7
20260510125404 28 306 0.0 0.0 0.00 0.00 0.00 72 1024.7
20260510124905 28 306 0.0 0.0 0.00 0.00 0.00 72 1024.7
20260510124404 28 306 0.0 0.0 0.00 0.00 0.00 72 1024.7
20260510123904 28 306 0.0 0.0 0.00 0.00 0.00 72 1024.7
20260510123404 28 306 0.0 0.0 0.00 0.00 0.00 72 1024.7
20260510122904 28 306 0.0 0.0 0.00 0.00 0.00 72 1024.7
20260510121904 28 306 0.0 0.0 0.00 0.00 0.00 72 1024.6
20260510121404 28 306 0.0 0.0 0.00 0.00 0.00 72 1024.6
20260510120904 28 306 0.0 0.0 0.00 0.00 0.00 71 1024.5
20260510120404 28 306 0.0 0.0 0.00 0.00 0.00 71 1024.4
20260510115904 28 306 0.0 0.0 0.00 0.00 0.00 71 1024.5
20260510115404 28 306 0.0 0.0 0.00 0.00 0.00 71 1024.4
20260510114404 28 306 0.0 0.0 0.00 0.00 0.00 71 1024.3
20260510113903 28 306 0.0 0.0 0.00 0.00 0.00 71 1024.3
20260510113407 28 306 0.0 0.0 0.00 0.00 0.00 71 1024.3
20260510112904 28 306 0.0 0.0 0.00 0.00 0.00 71 1024.3
20260510112404 29 306 0.0 0.0 0.00 0.00 0.00 71 1024.3
20260510111903 29 306 0.0 0.0 0.00 0.00 0.00 71 1024.2
20260510111404 29 306 0.0 0.0 0.00 0.00 0.00 71 1024.2
20260510110903 29 306 0.0 0.0 0.00 0.00 0.00 71 1024.3
20260510110404 29 306 0.0 0.0 0.00 0.00 0.00 71 1024.2
20260510105904 29 306 0.0 0.0 0.00 0.00 0.00 71 1024.3
20260510105404 29 306 0.0 0.0 0.00 0.00 0.00 71 1024.3
20260510104904 29 306 0.0 0.0 0.00 0.00 0.00 70 1024.1
20260510104404 29 306 0.0 0.0 0.00 0.00 0.00 70 1024.1
20260510103904 30 306 0.0 0.0 0.00 0.00 0.00 70 1024.1
20260510103404 30 306 0.0 0.0 0.00 0.00 0.00 70 1024.0
20260510102904 30 306 0.0 0.0 0.00 0.00 0.00 70 1024.0
20260510102404 30 306 0.0 0.0 0.00 0.00 0.00 70 1024.0
20260510101904 30 306 0.0 0.0 0.00 0.00 0.00 69 1024.0
20260510101404 30 306 0.0 0.0 0.00 0.00 0.00 69 1024.0
20260510100904 30 306 0.0 0.0 0.00 0.00 0.00 69 1024.0
20260510100405 30 306 0.0 0.0 0.00 0.00 0.00 69 1024.0
20260510095904 30 306 0.0 0.0 0.00 0.00 0.00 69 1023.9
20260510095404 30 306 0.0 0.0 0.00 0.00 0.00 69 1023.9
20260510094903 30 306 0.0 0.0 0.00 0.00 0.00 68 1023.9
20260510094404 30 306 0.0 0.0 0.00 0.00 0.00 68 1023.9
20260510093904 31 306 0.0 0.0 0.00 0.00 0.00 67 1023.9
20260510093404 31 306 0.0 0.0 0.00 0.00 0.00 67 1023.8
20260510092904 31 306 0.0 0.0 0.00 0.00 0.00 67 1023.7
20260510092404 31 306 0.0 0.0 0.00 0.00 0.00 67 1023.7
20260510090904 31 306 0.0 0.0 0.00 0.00 0.00 65 1023.5
20260510085904 31 306 0.0 0.0 0.00 0.00 0.00 65 1023.4
20260510085404 32 306 0.0 0.0 0.00 0.00 0.00 65 1023.4
20260510084404 32 306 0.0 0.0 0.00 0.00 0.00 65 1023.4
20260510083903 32 306 0.0 0.0 0.00 0.00 0.00 65 1023.3
20260510083404 32 306 0.0 0.0 0.00 0.00 0.00 63 1023.2
20260510082903 32 306 0.0 0.0 0.00 0.00 0.00 62 1023.2
20260510082404 33 306 0.0 0.0 0.00 0.00 0.00 62 1023.3
20260510081904 33 306 0.0 0.0 0.00 0.00 0.00 62 1023.2
20260510081404 33 306 0.0 0.0 0.00 0.00 0.00 63 1023.1
20260510080904 33 306 0.0 0.0 0.00 0.00 0.00 63 1023.1
20260510080403 33 306 0.0 0.0 0.00 0.00 0.00 63 1023.1
20260510075904 33 306 0.0 0.0 0.00 0.00 0.00 62 1023.1
20260510075403 33 306 0.0 0.0 0.00 0.00 0.00 62 1023.1
20260510074904 33 306 0.0 0.0 0.00 0.00 0.00 62 1023.1
20260510074404 33 306 0.0 0.0 0.00 0.00 0.00 62 1023.1
20260510073904 34 306 0.0 0.0 0.00 0.00 0.00 62 1023.0
20260510073406 34 306 0.0 0.0 0.00 0.00 0.00 62 1023.0
20260510072904 34 306 0.0 0.0 0.00 0.00 0.00 62 1023.0
20260510071904 34 306 0.0 0.0 0.00 0.00 0.00 63 1022.9
20260510071404 34 306 0.0 0.0 0.00 0.00 0.00 63 1022.9
20260510070904 34 306 0.0 0.0 0.00 0.00 0.00 62 1022.9
20260510070404 34 306 0.0 0.0 0.00 0.00 0.00 60 1022.9
20260510065904 34 306 0.0 0.0 0.00 0.00 0.00 60 1022.8
20260510065404 34 306 0.0 0.0 0.00 0.00 0.00 60 1022.8
20260510064904 35 306 0.0 0.0 0.00 0.00 0.00 60 1022.7
20260510064404 35 306 0.0 0.0 0.00 0.00 0.00 60 1022.7
20260510063404 35 306 0.0 0.0 0.00 0.00 0.00 59 1022.4
20260510062903 36 306 0.0 0.0 0.00 0.00 0.00 60 1022.3
20260510062404 36 306 0.0 0.0 0.00 0.00 0.00 59 1022.3
20260510061904 36 306 0.0 0.0 0.00 0.00 0.00 59 1022.3
20260510061404 36 306 0.0 0.0 0.00 0.00 0.00 59 1022.3
20260510060904 36 306 0.0 0.0 0.00 0.00 0.00 59 1022.2
20260510060403 37 306 0.0 0.0 0.00 0.00 0.00 59 1022.2
20260510055905 37 306 0.0 0.0 0.00 0.00 0.00 59 1022.1
20260510054404 38 306 0.0 0.0 0.00 0.00 0.00 56 1022.0
20260510053904 38 306 0.0 0.0 0.00 0.00 0.00 57 1022.0
20260510053404 38 306 0.0 0.0 0.00 0.00 0.00 57 1021.9
20260510052904 38 306 0.0 0.0 0.00 0.00 0.00 57 1022.0
20260510052404 38 306 0.0 0.0 0.00 0.00 0.00 57 1021.9
20260510051904 39 306 0.0 0.0 0.00 0.00 0.00 56 1021.9
20260510051405 39 306 0.0 0.0 0.00 0.00 0.00 55 1021.9
20260510050904 39 306 0.0 0.0 0.00 0.00 0.00 55 1021.9
20260510050404 40 306 0.0 0.0 0.00 0.00 0.00 54 1021.8
20260510045904 40 306 0.0 0.0 0.00 0.00 0.00 53 1021.7
20260510044904 40 306 0.0 0.0 0.00 0.00 0.00 53 1021.7
20260510044404 41 306 0.0 0.0 0.00 0.00 0.00 53 1021.7
20260510043904 41 306 0.0 0.0 0.00 0.00 0.00 52 1021.6
20260510042904 42 306 0.0 0.0 0.00 0.00 0.00 50 1021.5
20260510042404 42 306 0.0 0.0 0.00 0.00 0.00 49 1021.5
20260510041903 43 306 0.0 0.0 0.00 0.00 0.00 50 1021.5
20260510041404 43 306 0.0 0.0 0.00 0.00 0.00 49 1021.5
20260510040904 43 306 0.0 0.0 0.00 0.00 0.00 48 1021.4
20260510035904 44 306 0.0 0.0 0.00 0.00 0.00 46 1021.3
20260510035404 45 306 0.0 0.0 0.00 0.00 0.00 42 1021.2
20260510034904 46 306 0.0 0.0 0.00 0.00 0.00 43 1021.1
20260510033903 46 306 0.0 0.0 0.00 0.00 0.00 43 1021.0
20260510033404 47 306 0.0 0.0 0.00 0.00 0.00 40 1020.9
20260510032904 47 306 0.0 0.0 0.00 0.00 0.00 39 1020.8
20260510032403 48 306 0.0 0.0 0.00 0.00 0.00 39 1020.7
20260510031904 48 306 0.0 0.0 0.00 0.00 0.00 40 1020.6
20260510031403 49 306 0.0 0.0 0.00 0.00 0.00 39 1020.4
20260510030904 50 306 0.0 0.0 0.00 0.00 0.00 34 1020.3
20260510025904 51 306 0.0 0.0 0.00 0.00 0.00 34 1020.2
20260510025403 52 306 0.0 0.0 0.00 0.00 0.00 35 1020.1
20260510024904 52 306 0.0 0.0 0.00 0.00 0.00 35 1020.1
20260510024404 53 306 0.0 0.0 0.00 0.00 0.00 34 1020.0
20260510023904 54 306 0.0 0.0 0.00 0.00 0.00 26 1019.9
20260510023405 55 306 0.0 0.0 0.00 0.00 0.00 26 1019.8
20260510022903 56 306 0.0 0.0 0.00 0.00 0.00 26 1019.8
20260510022404 57 306 0.0 0.0 0.00 0.00 0.00 24 1019.8
20260510021905 57 306 0.0 0.0 0.00 0.00 0.00 25 1019.7
20260510021404 58 306 0.0 0.0 0.00 0.00 0.00 25 1019.7
20260510020905 58 306 0.0 0.0 0.00 0.00 0.00 24 1019.6
20260510020404 59 306 0.0 0.0 0.00 0.00 0.00 26 1019.6
20260510015904 60 306 0.0 0.0 0.00 0.00 0.00 22 1019.5
20260510015404 60 306 0.0 0.0 0.00 0.00 0.00 18 1019.5
20260510014404 62 307 0.0 0.0 0.00 0.00 0.00 18 1019.6
20260510013904 63 307 0.0 0.0 0.00 0.00 0.00 16 1019.6
20260510012903 63 307 0.0 0.0 0.00 0.00 0.00 13 1019.6
20260510012407 63 307 0.0 0.0 0.00 0.00 0.00 14 1019.5
20260510011904 63 307 0.0 0.0 0.00 0.00 0.00 13 1019.5
20260510011405 63 307 0.0 0.0 0.00 0.00 0.00 14 1019.6
20260510010904 63 307 0.0 5.0 0.00 0.00 0.00 14 1019.5
20260510010404 63 358 0.0 1.0 0.00 0.00 0.00 13 1019.6
20260510005904 63 0 0.0 1.0 0.00 0.00 0.00 15 1019.6
20260510005403 63 0 0.0 1.0 0.00 0.00 0.00 15 1019.5
20260510004904 63 0 0.0 3.0 0.00 0.00 0.00 12 1019.4
20260510004403 63 0 0.0 0.0 0.00 0.00 0.00 14 1019.4
20260510003404 63 5 0.0 2.0 0.00 0.00 0.00 16 1019.4
20260510002910 62 5 0.0 3.0 0.00 0.00 0.00 14 1019.2
20260510002404 62 3 1.0 7.0 0.00 0.00 0.00 13 1019.2
20260510001406 63 266 1.0 10.0 0.00 0.00 0.00 12 1019.2
20260510000404 63 233 3.0 10.0 0.00 0.00 0.00 13 1019.2
20260509235904 62 237 3.0 9.0 0.00 0.00 0.00 13 1019.2
20260509235404 62 238 0.0 3.0 0.00 0.00 0.00 14 1019.2
20260509234404 61 119 1.0 3.0 0.00 0.00 0.00 12 1019.2
20260509233904 61 126 0.0 0.0 0.00 0.00 0.00 15 1019.2
20260509233404 60 131 2.0 7.0 0.00 0.00 0.00 15 1019.1
20260509232903 60 32 1.0 5.0 0.00 0.00 0.00 14 1019.2
20260509232404 60 33 0.0 0.0 0.00 0.00 0.00 15 1019.2
20260509231904 60 43 0.0 0.0 0.00 0.00 0.00 15 1019.2
20260509230904 60 43 0.0 3.0 0.00 0.00 0.00 14 1019.1
20260509230404 61 44 2.0 5.0 0.00 0.00 0.00 13 1019.1
20260509225904 61 19 0.0 3.0 0.00 0.00 0.00 16 1019.2
20260509225404 61 33 0.0 3.0 0.00 0.00 0.00 13 1019.2
20260509224404 62 40 1.0 5.0 0.00 0.00 0.00 13 1019.0
20260509223907 62 271 0.0 7.0 0.00 0.00 0.00 14 1019.1
20260509223404 62 219 1.0 10.0 0.00 0.00 0.00 14 1019.1
20260509222904 63 242 5.0 9.0 0.00 0.00 0.00 14 1019.1
20260509222403 63 234 3.0 7.0 0.00 0.00 0.00 14 1019.1
20260509221910 63 354 0.0 12.0 0.00 0.00 0.00 13 1018.9
20260509221403 63 213 1.0 12.0 0.00 0.00 0.00 16 1018.9
20260509220904 63 220 3.0 10.0 0.00 0.00 0.00 14 1018.9
20260509220404 62 344 0.0 5.0 0.00 0.00 0.00 13 1019.0
20260509215904 62 32 1.0 9.0 0.00 0.00 0.00 14 1019.0
20260509214904 61 216 3.0 16.0 0.00 0.00 0.00 14 1019.0
20260509214404 61 242 1.0 3.0 0.00 0.00 0.00 14 1019.1
20260509213904 61 262 2.0 8.0 0.00 0.00 0.00 14 1019.1
20260509213404 61 205 6.0 12.0 0.00 0.00 0.00 15 1019.1
20260509212904 61 225 1.0 5.0 0.00 0.00 0.00 15 1019.1
20260509212404 61 217 3.0 9.0 0.00 0.00 0.00 15 1019.1
20260509210904 61 0 1.0 5.0 0.00 0.00 0.00 15 1019.0
20260509210404 60 234 0.0 0.0 0.00 0.00 0.00 16 1019.0
20260509205903 60 234 0.0 5.0 0.00 0.00 0.00 16 1019.0
20260509205404 60 236 0.0 0.0 0.00 0.00 0.00 16 1019.0